Tracking 19564 objects as of 19-Mar-2019
HD Live streaming from Space Station
objects crossing your sky now

TANSUO 2

Track TANSUO 2 now!
10-day predictions
TANSUO 2 is classified as:


NORAD ID: 28479
Int'l Code: 2004-046A
Perigee: 691.0 km
Apogee: 703.9 km
Inclination: 98.2 °
Period: 98.6 minutes
Semi major axis: 7068 km
RCS: 1.44 m2 (large)
Launch date: November 18, 2004
Source: People's Republic of China (PRC)
Launch site: Xichang Space Center, China (XSC)
aabbcc
Your satellite tracking list
Your tracking list is empty




NASA's NSSDC Master Catalog

Two Line Element Set (TLE):
1 28479U 04046A   19077.04635671  .00000090  00000-0  27917-4 0  9999
2 28479  98.1787  97.8622 0009092 296.5829  63.4439 14.60895086762794
Source of the keplerian elements: AFSPC